Location: Melbourne
(37.8170°S, 144.9670°E)
Time: 21:38:51
(UTC+10:00)

Transit 2A - All Passes

Search period start: 26 April 2018 00:00
Search period end: 06 May 2018 00:00
Orbit: 598 x 961 km, 66.7° (Epoch: 25 April)

Date Brightness Start Highest point End Pass type
(mag) Time Alt. Az. Time Alt. Az. Time Alt. Az.
26 Apr - 01:38:04 10° SSE 01:39:59 11° SE 01:41:55 10° ESE night (unlit)
26 Apr - 03:18:26 10° SSW 03:24:25 57° ESE 03:30:40 10° NE visible
26 Apr - 05:02:35 10° WSW 05:07:18 23° WNW 05:12:08 10° NNW visible
26 Apr - 17:57:13 10° NNW 18:01:42 62° ENE 18:06:40 10° SE visible
26 Apr - 19:42:21 10° W 19:45:27 17° SW 19:48:44 10° S visible
27 Apr - 02:44:32 10° SSW 02:50:15 41° SE 02:56:13 10° NE visible
27 Apr - 04:27:58 10° SW 04:33:24 33° WNW 04:39:00 10° N visible
27 Apr - 17:23:32 10° N 17:27:46 39° ENE 17:32:23 10° SE daylight
27 Apr - 19:07:18 10° WNW 19:11:06 23° SW 19:15:14 10° S visible
28 Apr - 02:10:44 10° S 02:16:02 30° SE 02:21:32 10° ENE night (unlit)
28 Apr - 03:53:35 10° SW 03:59:28 48° WNW 04:05:31 10° N visible
28 Apr - 16:50:11 10° NNE 16:53:54 25° ENE 16:57:53 10° SE daylight
28 Apr - 18:32:35 10° WNW 18:36:50 34° SW 18:41:29 10° SSE visible
29 Apr - 01:37:03 10° S 01:41:44 23° SE 01:46:35 10° E night (unlit)
29 Apr - 03:19:21 10° SSW 03:25:28 68° WNW 03:31:47 10° NNE night (unlit)
29 Apr - 16:17:19 10° NE 16:20:05 16° ENE 16:22:59 10° ESE daylight
29 Apr - 17:58:08 10° NW 18:02:39 50° WSW 18:07:38 10° SSE visible
30 Apr - 01:03:33 10° S 01:07:23 17° SE 01:11:18 10° E night (unlit)
30 Apr - 02:45:15 10° SSW 02:51:25 86° ESE 02:57:49 10° NNE night (unlit)
30 Apr - 04:30:48 10° WSW 04:33:58 14° WNW 04:37:09 10° NW night (unlit)
30 Apr - 17:23:55 10° NNW 17:28:31 77° WSW 17:33:39 10° SSE daylight
30 Apr - 19:11:11 10° WSW 19:12:47 11° SW 19:14:25 10° SSW visible
01 May - 00:30:27 10° SSE 00:32:56 12° SE 00:35:28 10° ESE night (unlit)
01 May - 02:11:14 10° SSW 02:17:19 62° ESE 02:23:38 10° NE night (unlit)
01 May - 03:55:36 10° WSW 04:00:08 21° WNW 04:04:46 10° NNW night (unlit)
01 May - 16:49:56 10° NNW 16:54:29 69° ENE 16:59:34 10° SSE daylight
01 May - 18:35:22 10° W 18:38:20 16° SW 18:41:29 10° S visible
02 May - 01:37:19 10° SSW 01:43:10 45° ESE 01:49:14 10° NE night (unlit)
02 May - 03:20:54 10° SW 03:26:15 31° WNW 03:31:43 10° NNW night (unlit)
02 May - 16:16:12 10° N 16:20:32 43° ENE 16:25:19 10° SE daylight
02 May - 18:00:15 10° W 18:03:59 22° SW 18:08:01 10° S visible
03 May - 01:03:30 10° S 01:08:57 33° SE 01:14:36 10° ENE night (unlit)
03 May - 02:46:29 10° SW 02:52:19 44° WNW 02:58:18 10° N night (unlit)
03 May - 15:42:45 10° NNE 15:46:39 28° ENE 15:50:53 10° SE daylight
03 May - 17:25:28 10° WNW 17:29:41 31° SW 17:34:19 10° S daylight
04 May - 00:29:47 10° S 00:34:40 24° SE 00:39:43 10° ENE night (unlit)
04 May - 02:12:13 10° SW 02:18:20 63° WNW 02:24:38 10° NNE night (unlit)
04 May - 15:09:44 10° NNE 15:12:50 18° ENE 15:16:07 10° ESE daylight
04 May - 16:50:58 10° NW 16:55:28 46° WSW 17:00:29 10° SSE daylight
04 May - 23:56:14 10° S 00:00:19 18° SE 00:04:32 10° E night (unlit)
05 May - 01:38:06 10° SSW 01:44:19 88° WNW 01:50:43 10° NNE night (unlit)
05 May - 03:24:04 10° WSW 03:26:47 13° WNW 03:29:30 10° NW night (unlit)
05 May - 14:37:48 10° ENE 14:39:03 11° E 14:40:20 10° E daylight
05 May - 16:16:42 10° NW 16:21:20 70° WSW 16:26:32 10° SSE daylight
05 May - 18:04:29 10° SW 18:05:41 11° SW 18:06:56 10° SSW visible
05 May - 23:22:58 10° SSE 23:25:54 14° SE 23:28:54 10° ESE night (unlit)
